Tel Aviv, Israel

3:31 PM IDT on October 19, 2017 (GMT +0300)
Ben Gurion

Weather History for LLBG - January, 2016

Change the Weather History Date:

Friday, January 1, 2016

  Actual Average Record
Temperature  
Mean Temperature 52 °F -  
Max Temperature 55 °F 61 °F 77 °F (2000)
Min Temperature 48 °F 47 °F 43 °F (2014)
Degree Days  
Heating Degree Days 14    
Growing Degree Days 2 (Base 50)    
Moisture  
Dew Point 43 °F    
Average Humidity 70    
Maximum Humidity 94    
Minimum Humidity 49    
Precipitation  
Precipitation 0.75 in - - ()
Sea Level Pressure  
Sea Level Pressure 30.02 in    
Wind  
Wind Speed 16 mph ()    
Max Wind Speed 29 mph    
Max Gust Speed 46 mph    
Visibility 6.0 miles    
Events Rain    
Averages and records for this station are not official NWS values.
T = Trace of Precipitation, MM = Missing Value Source: Averaged Metar Reports

Daily Weather History Graph

Daily Weather History Graph

Search for Another Location

Airport or City:

Trip Planner

Search our weather history database for the weather conditions in past years. The results will help you decide how hot, cold, wet, or windy it might be!

Date:

Astronomy

Jan. 01, 2016 Rise Set
Actual Time 6:40 AM IST 4:46 PM IST
Civil Twilight 6:13 AM IST 5:13 PM IST
Nautical Twilight 5:43 AM IST 5:44 PM IST
Astronomical Twilight 5:13 AM IST 6:13 PM IST
Moon 11:29 PM IST (1/1) 11:03 AM IST (1/1)
Length of Visible Light 10h 59m
Length of Day
10h 05m
Waning Gibbous, 58% of the Moon is Illuminated
Jan 1
Waning Gibbous
Jan 2
Last Quarter
Jan 10
New
Jan 17
First Quarter
Jan 24
Full

Hourly Weather History & Observations

Time (IST) Temp. Dew Point Humidity Pressure Visibility Wind Dir Wind Speed Gust Speed Precip Events Conditions
12:20 AM 51.8 °F 50.0 °F 94% 29.92 in 5.0 mi SSW 4.6 mph - N/A Rain Rain
12:50 AM 53.6 °F 50.0 °F 88% 29.92 in 5.0 mi West 11.5 mph - N/A Rain Rain
1:20 AM 53.6 °F 51.8 °F 94% 29.92 in 5.0 mi SSW 4.6 mph - N/A Rain Rain
1:50 AM 53.6 °F 51.8 °F 94% 29.92 in 5.0 mi SSE 5.8 mph - N/A Rain Rain
2:00 AM 53 °F 51 °F 91% 29.94 in 5 mi SSE 5.8 mph - - Rain Heavy Rain
2:20 AM 53.6 °F 51.8 °F 94% 29.92 in 5.6 mi WSW 6.9 mph - N/A Rain Light Rain
2:50 AM 55.4 °F 48.2 °F 77% 29.92 in 6.2 mi West 11.5 mph - N/A   Scattered Clouds
3:20 AM 57.2 °F 46.4 °F 67% 29.92 in 6.2 mi West 18.4 mph - N/A   Scattered Clouds
3:50 AM 57.2 °F 46.4 °F 67% 29.92 in 6.2 mi West 18.4 mph - N/A   Mostly Cloudy
4:20 AM 57.2 °F 44.6 °F 63% 29.92 in 6.2 mi West 20.7 mph - N/A   Scattered Clouds
4:50 AM 55.4 °F 44.6 °F 67% 29.92 in 5.6 mi West 20.7 mph - N/A Rain Light Rain
5:00 AM 53 °F 46 °F 69% 29.93 in 6 mi West 24.2 mph - - Rain Light Rain
5:20 AM 53.6 °F 44.6 °F 72% 29.92 in 5.6 mi West 24.2 mph 36.8 mph N/A Rain Light Rain
5:50 AM 51.8 °F 46.4 °F 82% 29.95 in 5.6 mi West 21.9 mph - N/A Rain Light Rain
6:20 AM 53.6 °F 44.6 °F 72% 29.95 in 6.2 mi WNW 25.3 mph - N/A Rain Light Rain
6:50 AM 53.6 °F 44.6 °F 72% 29.95 in 6.2 mi West 25.3 mph - N/A   Mostly Cloudy
7:20 AM 53.6 °F 42.8 °F 67% 29.95 in 6.2 mi West 25.3 mph - N/A   Scattered Clouds
7:50 AM 55.4 °F 39.2 °F 54% 29.98 in 6.2 mi West 20.7 mph 36.8 mph N/A   Mostly Cloudy
8:00 AM 54 °F 40 °F 49% 29.98 in 6 mi West 20.7 mph - - Rain Light Rain
8:20 AM 51.8 °F 41.0 °F 67% 29.98 in 6.2 mi WSW 15.0 mph 28.8 mph N/A   Mostly Cloudy
8:50 AM 53.6 °F 41.0 °F 62% 29.98 in 6.2 mi West 21.9 mph 34.5 mph N/A Rain Rain
9:20 AM 55.4 °F 39.2 °F 54% 30.01 in 6.2 mi West 28.8 mph 46.0 mph N/A   Scattered Clouds
9:50 AM 53.6 °F 39.2 °F 58% 30.01 in 6.2 mi West 28.8 mph - N/A   Scattered Clouds
10:20 AM 55.4 °F 37.4 °F 51% 30.01 in 6.2 mi West 26.5 mph 38.0 mph N/A   Scattered Clouds
10:50 AM 55.4 °F 41.0 °F 58% 30.01 in 6.2 mi West 24.2 mph 35.7 mph N/A   Mostly Cloudy
11:00 AM 54 °F 41 °F 51% 30.02 in 6 mi West 27.6 mph - -   Partly Cloudy
11:20 AM 53.6 °F 39.2 °F 58% 30.01 in 6.2 mi West 23.0 mph 34.5 mph N/A   Mostly Cloudy
11:50 AM 51.8 °F 44.6 °F 76% 30.01 in 5.6 mi West 17.3 mph 31.1 mph N/A Rain Rain
12:20 PM 51.8 °F 42.8 °F 71% 30.01 in 6.2 mi WNW 26.5 mph - N/A   Mostly Cloudy
12:50 PM 53.6 °F 41.0 °F 62% 30.01 in 6.2 mi West 27.6 mph - N/A   Scattered Clouds
1:20 PM 53.6 °F 41.0 °F 62% 30.01 in 6.2 mi West 25.3 mph - N/A   Mostly Cloudy
1:50 PM 53.6 °F 42.8 °F 67% 30.01 in 6.2 mi West 24.2 mph - N/A   Mostly Cloudy
2:00 PM 52 °F 40 °F 55% 30.02 in 6 mi WNW 28.8 mph - -   Partly Cloudy
2:20 PM 53.6 °F 41.0 °F 62% 30.01 in 6.2 mi WNW 26.5 mph 41.4 mph N/A   Mostly Cloudy
2:50 PM 48.2 °F 42.8 °F 82% 30.04 in 5.6 mi WSW 15.0 mph - N/A Rain Rain
3:20 PM 53.6 °F 41.0 °F 62% 30.04 in 6.2 mi West 23.0 mph - N/A   Mostly Cloudy
3:50 PM 50.0 °F 41.0 °F 71% 30.04 in 6.2 mi WSW 17.3 mph - N/A Rain Rain
4:20 PM 48.2 °F 42.8 °F 82% 30.06 in 6.2 mi WSW 21.9 mph 33.4 mph N/A Rain Rain
4:50 PM 51.8 °F 41.0 °F 67% 30.06 in 6.2 mi WNW 23.0 mph - N/A   Scattered Clouds
5:00 PM 51 °F 42 °F 61% 30.07 in 6 mi WNW 23.0 mph - -   Partly Cloudy
5:20 PM 51.8 °F 42.8 °F 71% 30.06 in 6.2 mi WNW 19.6 mph - N/A Rain Light Rain
5:50 PM 50.0 °F 41.0 °F 71% 30.09 in 6.2 mi West 19.6 mph 31.1 mph N/A Rain Rain Showers
6:20 PM 48.2 °F 42.8 °F 82% 30.09 in 6.2 mi WNW 24.2 mph - N/A Rain Light Rain
6:50 PM 50.0 °F 42.8 °F 76% 30.09 in 6.2 mi West 15.0 mph - N/A   Scattered Clouds
7:20 PM 50.0 °F 42.8 °F 76% 30.09 in 6.2 mi WNW 25.3 mph - N/A Rain Rain Showers
7:50 PM 50.0 °F 41.0 °F 71% 30.12 in 6.2 mi West 21.9 mph - N/A   Mostly Cloudy
8:00 PM 50 °F 39 °F 57% 30.13 in 6 mi WNW 21.9 mph - -   Partly Cloudy
8:20 PM 48.2 °F 41.0 °F 76% 30.12 in 6.2 mi West 13.8 mph - N/A   Mostly Cloudy
8:50 PM 48.2 °F 42.8 °F 82% 30.15 in 6.2 mi NW 18.4 mph - N/A   Mostly Cloudy
9:20 PM 48.2 °F 39.2 °F 71% 30.12 in 6.2 mi WNW 16.1 mph - N/A   Mostly Cloudy
9:50 PM 48.2 °F 39.2 °F 71% 30.12 in 6.2 mi WNW 17.3 mph 28.8 mph N/A   Scattered Clouds
10:20 PM 50.0 °F 41.0 °F 71% 30.15 in 6.2 mi WNW 16.1 mph 31.1 mph N/A   Mostly Cloudy
10:50 PM 48.2 °F 41.0 °F 76% 30.15 in 6.2 mi WNW 11.5 mph - N/A   Mostly Cloudy
11:00 PM 49 °F 40 °F 63% 30.17 in 6 mi WNW 11.5 mph - -   Mostly Cloudy
11:20 PM 50.0 °F 39.2 °F 66% 30.15 in 6.2 mi WNW 9.2 mph - N/A   Scattered Clouds
11:50 PM 48.2 °F 41.0 °F 76% 30.15 in 6.2 mi NNW 11.5 mph - N/A Rain Light Rain